Terminal Aerodrome Forecast
Issued by NWS Corpus Christi, TX

Home | Current Version | Previous Version | Text Only | Print | Product List | Glossary On
Versions: 1 2 3 4 5 6 7 8 9 10 11 12 13 14 15 16 17
533
FTUS44 KCRP 182220 AAA
TAFVCT
TAF AMD
KVCT 182220Z 1822/1918 07007KT 4SM BR VCSH OVC006
      TEMPO 1822/1824 2SM BR OVC002
     FM190800 VRB03KT 5SM BR VCSH OVC004
      TEMPO 1911/1915 2SM -SHRA BR OVC004
     FM191500 16007KT 5SM -RA BR OVC008 PROB30 1915/1918 2SM TSRA BR
      OVC006CB=

USA.gov is the U.S. government's official web portal to all federal, state and local government web resources and services.